• In Czech Republic
  • List of Countries
  • For 7 days
  • Water Temperature
  • Satellite Maps
  • Weather Map
  • Weather Widgets
  • user-avatar
    Login

    Hourly Weather Omagh

    Today, 21 September, Friday

    Time Temperature Precipitation Wind Pressure Humidity
    00:00 +7°C° 0.2 mm 3 mps 742 mmHg 93%
    01:00 +7°C° 0 mm 3 mps 742 mmHg 93%
    02:00 +5°C° 0 mm 4 mps 742 mmHg 93%
    03:00 +5°C° 0 mm 4 mps 742 mmHg 93%
    04:00 +5°C° 0.1 mm 4 mps 742 mmHg 93%
    05:00 +6°C° 0.1 mm 4 mps 742 mmHg 93%
    06:00 +6°C° 0 mm 5 mps 741 mmHg 94%
    07:00 +7°C° 1.4 mm 6 mps 742 mmHg 93%
    08:00 +7°C° 1.4 mm 6 mps 743 mmHg 92%
    09:00 +8°C° 1.4 mm 7 mps 743 mmHg 91%
    10:00 +9°C° 0.2 mm 7 mps 744 mmHg 87%
    11:00 +10°C° 0.2 mm 7 mps 746 mmHg 82%
    12:00 +10°C° 0.2 mm 7 mps 747 mmHg 78%
    13:00 +11°C° 0.1 mm 7 mps 748 mmHg 75%
    14:00 +11°C° 0.1 mm 6 mps 749 mmHg 73%
    15:00 +11°C° 0.1 mm 6 mps 750 mmHg 71%
    16:00 +10°C° 0.1 mm 5 mps 750 mmHg 74%
    17:00 +9°C° 0.1 mm 5 mps 751 mmHg 77%
    18:00 +8°C° 0.1 mm 4 mps 751 mmHg 80%
    19:00 +8°C° 0 mm 4 mps 752 mmHg 82%
    20:00 +7°C° 0 mm 4 mps 752 mmHg 84%
    21:00 +7°C° 0 mm 3 mps 753 mmHg 86%
    22:00 +7°C° 0 mm 3 mps 753 mmHg 86%
    23:00 +5°C° 0 mm 3 mps 754 mmHg 86%

    Tomorrow, 22 September, Saturday

    Time Temperature Precipitation Wind Pressure Humidity
    00:00 +5°C° 0 mm 3 mps 754 mmHg 87%
    01:00 +5°C° 0 mm 3 mps 754 mmHg 86%
    02:00 +5°C° 0 mm 3 mps 754 mmHg 86%
    03:00 +5°C° 0 mm 3 mps 755 mmHg 86%
    04:00 +5°C° 0 mm 3 mps 755 mmHg 87%
    05:00 +5°C° 0 mm 3 mps 755 mmHg 88%
    06:00 +6°C° 0 mm 2 mps 755 mmHg 89%
    07:00 +7°C° 0 mm 2 mps 755 mmHg 84%
    08:00 +8°C° 0 mm 3 mps 756 mmHg 79%
    09:00 +9°C° 0 mm 3 mps 756 mmHg 74%
    10:00 +10°C° 0 mm 3 mps 756 mmHg 70%
    11:00 +11°C° 0 mm 3 mps 756 mmHg 66%
    12:00 +12°C° 0 mm 3 mps 756 mmHg 61%
    13:00 +13°C° 0 mm 2 mps 756 mmHg 61%
    14:00 +13°C° 0 mm 2 mps 756 mmHg 60%
    15:00 +13°C° 0 mm 2 mps 757 mmHg 60%
    16:00 +12°C° 0 mm 2 mps 757 mmHg 65%
    17:00 +11°C° 0 mm 1 mps 756 mmHg 71%
    18:00 +10°C° 0 mm 1 mps 756 mmHg 76%
    19:00 +9°C° 0 mm 1 mps 757 mmHg 78%
    20:00 +8°C° 0 mm 1 mps 757 mmHg 81%
    21:00 +7°C° 0 mm 1 mps 757 mmHg 83%
    22:00 +7°C° 0 mm 1 mps 757 mmHg 84%
    23:00 +7°C° 0 mm 1 mps 757 mmHg 84%

    Day after tomorrow, 23 September, Sunday

    Time Temperature Precipitation Wind Pressure Humidity
    00:00 +7°C° 0 mm 1 mps 757 mmHg 84%
    01:00 +7°C° 0 mm 1 mps 757 mmHg 84%
    02:00 +7°C° 0 mm 1 mps 757 mmHg 84%
    03:00 +7°C° 0 mm 1 mps 757 mmHg 84%
    04:00 +7°C° 0 mm 1 mps 757 mmHg 84%
    05:00 +7°C° 0 mm 1 mps 757 mmHg 85%
    06:00 +7°C° 0 mm 1 mps 757 mmHg 86%
    07:00 +8°C° 0 mm 1 mps 757 mmHg 84%
    08:00 +8°C° 0 mm 2 mps 758 mmHg 81%
    09:00 +9°C° 0 mm 2 mps 759 mmHg 79%
    10:00 +10°C° 0.1 mm 3 mps 759 mmHg 75%
    11:00 +11°C° 0.1 mm 3 mps 759 mmHg 70%
    12:00 +12°C° 0.1 mm 4 mps 760 mmHg 66%
    13:00 +12°C° 0.1 mm 4 mps 760 mmHg 67%
    14:00 +12°C° 0.1 mm 4 mps 761 mmHg 68%
    15:00 +10°C° 0.1 mm 5 mps 761 mmHg 68%
    16:00 +10°C° 0 mm 4 mps 762 mmHg 71%
    17:00 +8°C° 0 mm 4 mps 763 mmHg 73%
    18:00 +8°C° 0 mm 3 mps 764 mmHg 75%
    19:00 +7°C° 0 mm 3 mps 765 mmHg 78%
    20:00 +6°C° 0 mm 2 mps 766 mmHg 81%
    21:00 +5°C° 0 mm 2 mps 767 mmHg 83%
    22:00 +5°C° 0 mm 2 mps 767 mmHg 85%
    23:00 +5°C° 0 mm 2 mps 768 mmHg 87%

    24 September, Monday

    Time Temperature Precipitation Wind Pressure Humidity
    00:00 +4°C° 0 mm 2 mps 768 mmHg 88%
    01:00 +4°C° 0 mm 2 mps 769 mmHg 89%
    02:00 +4°C° 0 mm 2 mps 769 mmHg 90%
    03:00 +4°C° 0 mm 2 mps 769 mmHg 91%
    04:00 +5°C° 0 mm 1 mps 770 mmHg 92%
    05:00 +5°C° 0 mm 1 mps 770 mmHg 92%
    06:00 +5°C° 0 mm 1 mps 770 mmHg 93%
    07:00 +7°C° 0 mm 1 mps 771 mmHg 87%
    08:00 +9°C° 0 mm 1 mps 771 mmHg 81%
    09:00 +10°C° 0 mm 1 mps 772 mmHg 75%
    10:00 +12°C° 0 mm 1 mps 772 mmHg 69%
    11:00 +13°C° 0 mm 2 mps 772 mmHg 63%
    12:00 +14°C° 0 mm 2 mps 773 mmHg 58%
    13:00 +14°C° 0 mm 2 mps 772 mmHg 58%
    14:00 +14°C° 0 mm 2 mps 772 mmHg 57%
    15:00 +14°C° 0 mm 2 mps 772 mmHg 57%
    16:00 +13°C° 0 mm 1 mps 772 mmHg 64%
    17:00 +11°C° 0 mm 1 mps 772 mmHg 70%
    18:00 +10°C° 0 mm 1 mps 772 mmHg 77%
    19:00 +9°C° 0 mm 1 mps 772 mmHg 80%
    20:00 +8°C° 0 mm 1 mps 772 mmHg 83%
    21:00 +7°C° 0 mm 1 mps 772 mmHg 87%
    22:00 +7°C° 0 mm 1 mps 772 mmHg 88%
    23:00 +6°C° 0 mm 1 mps 772 mmHg 89%

    25 September, Tuesday

    Time Temperature Precipitation Wind Pressure Humidity
    00:00 +6°C° 0 mm 1 mps 772 mmHg 90%
    01:00 +6°C° 0 mm 1 mps 771 mmHg 91%
    02:00 +5°C° 0 mm 2 mps 771 mmHg 92%
    03:00 +4°C° 0 mm 2 mps 770 mmHg 94%
    04:00 +4°C° 0 mm 2 mps 770 mmHg 94%
    05:00 +4°C° 0 mm 2 mps 770 mmHg 94%
    06:00 +4°C° 0 mm 2 mps 769 mmHg 95%
    07:00 +4°C° 0 mm 3 mps 769 mmHg 89%
    08:00 +7°C° 0 mm 3 mps 769 mmHg 83%
    09:00 +8°C° 0 mm 4 mps 768 mmHg 77%
    10:00 +9°C° 0 mm 5 mps 768 mmHg 74%
    11:00 +12°C° 0 mm 5 mps 767 mmHg 70%
    12:00 +13°C° 0 mm 6 mps 767 mmHg 67%
    13:00 +13°C° 0 mm 6 mps 766 mmHg 67%
    14:00 +14°C° 0 mm 6 mps 765 mmHg 66%
    15:00 +14°C° 0 mm 6 mps 764 mmHg 66%
    16:00 +13°C° 0 mm 5 mps 764 mmHg 71%
    17:00 +13°C° 0 mm 5 mps 764 mmHg 76%
    18:00 +12°C° 0 mm 4 mps 763 mmHg 81%
    19:00 +10°C° 0 mm 5 mps 763 mmHg 82%
    20:00 +10°C° 0 mm 5 mps 763 mmHg 84%
    21:00 +9°C° 0 mm 5 mps 763 mmHg 85%
    22:00 +9°C° 0 mm 5 mps 762 mmHg 86%
    23:00 +9°C° 0 mm 5 mps 762 mmHg 87%

    26 September, Wednesday

    Time Temperature Precipitation Wind Pressure Humidity
    00:00 +9°C° 0 mm 5 mps 762 mmHg 88%
    01:00 +9°C° 0 mm 5 mps 761 mmHg 88%
    02:00 +9°C° 0 mm 5 mps 761 mmHg 89%
    03:00 +9°C° 0 mm 5 mps 760 mmHg 89%
    04:00 +10°C° 0.1 mm 5 mps 760 mmHg 89%
    05:00 +10°C° 0.1 mm 5 mps 760 mmHg 89%
    06:00 +10°C° 0.1 mm 5 mps 760 mmHg 90%
    07:00 +10°C° 0.2 mm 5 mps 760 mmHg 90%
    08:00 +12°C° 0.2 mm 5 mps 760 mmHg 90%
    09:00 +12°C° 0.2 mm 5 mps 759 mmHg 91%
    10:00 +13°C° 0 mm 5 mps 759 mmHg 90%
    11:00 +14°C° 0 mm 5 mps 759 mmHg 89%
    12:00 +14°C° 0 mm 5 mps 759 mmHg 88%
    13:00 +15°C° 0 mm 5 mps 759 mmHg 88%
    14:00 +15°C° 0 mm 5 mps 759 mmHg 89%
    15:00 +15°C° 0 mm 5 mps 758 mmHg 89%
    16:00 +15°C° 0 mm 5 mps 758 mmHg 90%
    17:00 +15°C° 0 mm 5 mps 758 mmHg 91%
    18:00 +15°C° 0 mm 4 mps 758 mmHg 92%
    19:00 +15°C° 0.1 mm 4 mps 758 mmHg 92%
    20:00 +15°C° 0.1 mm 5 mps 758 mmHg 93%
    21:00 +15°C° 0.1 mm 5 mps 758 mmHg 93%
    22:00 +15°C° 0.2 mm 5 mps 757 mmHg 94%
    23:00 +15°C° 0.2 mm 5 mps 757 mmHg 95%
    Show more